Year,Month,Day,Hour,Minute,Value (Times are PST for temperature in C)
2015,07,07,00,00,16.60
2015,07,07,00,01,16.60
2015,07,07,00,02,16.60
2015,07,07,00,03,16.60
2015,07,07,00,04,16.60
2015,07,07,00,05,16.50
2015,07,07,00,06,16.50
2015,07,07,00,07,16.50
2015,07,07,00,08,16.50
2015,07,07,00,09,16.50
2015,07,07,00,10,16.50
2015,07,07,00,11,16.40
2015,07,07,00,12,16.40
2015,07,07,00,13,16.40
2015,07,07,00,14,16.40
2015,07,07,00,15,16.40
2015,07,07,00,16,16.40
2015,07,07,00,17,16.40
2015,07,07,00,18,16.40
2015,07,07,00,19,16.40
2015,07,07,00,20,16.40
2015,07,07,00,21,16.40
2015,07,07,00,22,16.40
2015,07,07,00,23,16.40
2015,07,07,00,24,16.40
2015,07,07,00,25,16.30
2015,07,07,00,26,16.30
2015,07,07,00,27,16.30
2015,07,07,00,28,16.30
2015,07,07,00,29,16.30
2015,07,07,00,30,16.20
2015,07,07,00,31,16.20
2015,07,07,00,32,16.10
2015,07,07,00,33,16.10
2015,07,07,00,34,16.10
2015,07,07,00,35,16.10
2015,07,07,00,36,16.00
2015,07,07,00,37,16.00
2015,07,07,00,38,16.00
2015,07,07,00,39,16.00
2015,07,07,00,40,15.90
2015,07,07,00,41,15.90
2015,07,07,00,42,15.90
2015,07,07,00,43,15.90
2015,07,07,00,44,15.90
2015,07,07,00,45,15.90
2015,07,07,00,46,15.90
2015,07,07,00,47,15.90
2015,07,07,00,48,15.90
2015,07,07,00,49,15.80
2015,07,07,00,50,15.80
2015,07,07,00,51,15.80
2015,07,07,00,52,15.80
2015,07,07,00,53,15.80
2015,07,07,00,54,15.80
2015,07,07,00,55,15.80
2015,07,07,00,56,15.80
2015,07,07,00,57,15.80
2015,07,07,00,58,15.80
2015,07,07,00,59,15.80
2015,07,07,01,00,15.80
2015,07,07,01,01,15.80
2015,07,07,01,02,15.80
2015,07,07,01,03,15.80
2015,07,07,01,04,15.80
2015,07,07,01,05,15.80
2015,07,07,01,06,15.80
2015,07,07,01,07,15.70
2015,07,07,01,08,15.70
2015,07,07,01,09,15.70
2015,07,07,01,10,15.70
2015,07,07,01,11,15.70
2015,07,07,01,12,15.70
2015,07,07,01,13,15.70
2015,07,07,01,14,15.70
2015,07,07,01,15,15.70
2015,07,07,01,16,15.70
2015,07,07,01,17,15.70
2015,07,07,01,18,15.70
2015,07,07,01,19,15.60
2015,07,07,01,20,15.60
2015,07,07,01,21,15.70
2015,07,07,01,22,15.70
2015,07,07,01,23,15.70
2015,07,07,01,24,15.70
2015,07,07,01,25,15.70
2015,07,07,01,26,15.70
2015,07,07,01,27,15.70
2015,07,07,01,28,15.70
2015,07,07,01,29,15.70
2015,07,07,01,30,15.70
2015,07,07,01,31,15.70
2015,07,07,01,32,15.70
2015,07,07,01,33,15.70
2015,07,07,01,34,15.60
2015,07,07,01,35,15.60
2015,07,07,01,36,15.60
2015,07,07,01,37,15.60
2015,07,07,01,38,15.60
2015,07,07,01,39,15.50
2015,07,07,01,40,15.50
2015,07,07,01,41,15.50
2015,07,07,01,42,15.50
2015,07,07,01,43,15.50
2015,07,07,01,44,15.50
2015,07,07,01,45,15.40
2015,07,07,01,46,15.40
2015,07,07,01,47,15.40
2015,07,07,01,48,15.40
2015,07,07,01,49,15.40
2015,07,07,01,50,15.40
2015,07,07,01,51,15.40
2015,07,07,01,52,15.40
2015,07,07,01,53,15.50
2015,07,07,01,54,15.50
2015,07,07,01,55,15.50
2015,07,07,01,56,15.50
2015,07,07,01,57,15.50
2015,07,07,01,58,15.50
2015,07,07,01,59,15.50
2015,07,07,02,00,15.50
2015,07,07,02,01,15.50
2015,07,07,02,02,15.50
2015,07,07,02,03,15.50
2015,07,07,02,04,15.50
2015,07,07,02,05,15.50
2015,07,07,02,06,15.50
2015,07,07,02,07,15.50
2015,07,07,02,08,15.50
2015,07,07,02,09,15.50
2015,07,07,02,10,15.50
2015,07,07,02,11,15.50
2015,07,07,02,12,15.50
2015,07,07,02,13,15.50
2015,07,07,02,14,15.50
2015,07,07,02,15,15.50
2015,07,07,02,16,15.50
2015,07,07,02,17,15.50
2015,07,07,02,18,15.50
2015,07,07,02,19,15.40
2015,07,07,02,20,15.40
2015,07,07,02,21,15.40
2015,07,07,02,22,15.40
2015,07,07,02,23,15.40
2015,07,07,02,24,15.40
2015,07,07,02,25,15.30
2015,07,07,02,26,15.30
2015,07,07,02,27,15.40
2015,07,07,02,28,15.40
2015,07,07,02,29,15.40
2015,07,07,02,30,15.40
2015,07,07,02,31,15.40
2015,07,07,02,32,15.40
2015,07,07,02,33,15.50
2015,07,07,02,34,15.50
2015,07,07,02,35,15.50
2015,07,07,02,36,15.50
2015,07,07,02,37,15.50
2015,07,07,02,38,15.50
2015,07,07,02,39,15.50
2015,07,07,02,40,15.50
2015,07,07,02,41,15.50
2015,07,07,02,42,15.50
2015,07,07,02,43,15.50
2015,07,07,02,44,15.50
2015,07,07,02,45,15.50
2015,07,07,02,46,15.40
2015,07,07,02,47,15.40
2015,07,07,02,48,15.40
2015,07,07,02,49,15.40
2015,07,07,02,50,15.40
2015,07,07,02,51,15.40
2015,07,07,02,52,15.30
2015,07,07,02,53,15.30
2015,07,07,02,54,15.30
2015,07,07,02,55,15.30
2015,07,07,02,56,15.30
2015,07,07,02,57,15.30
2015,07,07,02,58,15.30
2015,07,07,02,59,15.20
2015,07,07,03,00,15.20
2015,07,07,03,01,15.20
2015,07,07,03,02,15.20
2015,07,07,03,03,15.10
2015,07,07,03,04,15.10
2015,07,07,03,05,15.10
2015,07,07,03,06,15.10
2015,07,07,03,07,15.10
2015,07,07,03,08,15.10
2015,07,07,03,09,15.10
2015,07,07,03,10,15.10
2015,07,07,03,11,15.10
2015,07,07,03,12,15.10
2015,07,07,03,13,15.10
2015,07,07,03,14,15.10
2015,07,07,03,15,15.10
2015,07,07,03,16,15.10
2015,07,07,03,17,15.10
2015,07,07,03,18,15.10
2015,07,07,03,19,15.10
2015,07,07,03,20,15.00
2015,07,07,03,21,15.00
2015,07,07,03,22,15.00
2015,07,07,03,23,15.00
2015,07,07,03,24,15.00
2015,07,07,03,25,15.00
2015,07,07,03,26,15.00
2015,07,07,03,27,15.00
2015,07,07,03,28,15.00
2015,07,07,03,29,15.00
2015,07,07,03,30,15.00
2015,07,07,03,31,15.10
2015,07,07,03,32,15.10
2015,07,07,03,33,15.10
2015,07,07,03,34,15.10
2015,07,07,03,35,15.10
2015,07,07,03,36,15.10
2015,07,07,03,37,15.10
2015,07,07,03,38,15.10
2015,07,07,03,39,15.10
2015,07,07,03,40,15.00
2015,07,07,03,41,15.00
2015,07,07,03,42,15.00
2015,07,07,03,43,15.00
2015,07,07,03,44,15.00
2015,07,07,03,45,15.00
2015,07,07,03,46,15.00
2015,07,07,03,47,14.90
2015,07,07,03,48,14.90
2015,07,07,03,49,14.90
2015,07,07,03,50,14.90
2015,07,07,03,51,14.90
2015,07,07,03,52,14.90
2015,07,07,03,53,14.90
2015,07,07,03,54,14.90
2015,07,07,03,55,14.90
2015,07,07,03,56,14.90
2015,07,07,03,57,14.90
2015,07,07,03,58,14.90
2015,07,07,03,59,14.90
2015,07,07,04,00,14.90
2015,07,07,04,01,14.90
2015,07,07,04,02,14.90
2015,07,07,04,03,14.90
2015,07,07,04,04,14.90
2015,07,07,04,05,14.90
2015,07,07,04,06,14.90
2015,07,07,04,07,14.90
2015,07,07,04,08,14.90
2015,07,07,04,09,14.90
2015,07,07,04,10,14.90
2015,07,07,04,11,14.90
2015,07,07,04,12,14.90
2015,07,07,04,13,14.90
2015,07,07,04,14,14.90
2015,07,07,04,15,14.90
2015,07,07,04,16,14.80
2015,07,07,04,17,14.80
2015,07,07,04,18,14.80
2015,07,07,04,19,14.80
2015,07,07,04,20,14.80
2015,07,07,04,21,14.80
2015,07,07,04,22,14.80
2015,07,07,04,23,14.80
2015,07,07,04,24,14.80
2015,07,07,04,25,14.80
2015,07,07,04,26,14.80
2015,07,07,04,27,14.80
2015,07,07,04,28,14.80
2015,07,07,04,29,14.80
2015,07,07,04,30,14.80
2015,07,07,04,31,14.90
2015,07,07,04,32,14.90
2015,07,07,04,33,14.90
2015,07,07,04,34,14.80
2015,07,07,04,35,14.80
2015,07,07,04,36,14.80
2015,07,07,04,37,14.80
2015,07,07,04,38,14.80
2015,07,07,04,39,14.80
2015,07,07,04,40,14.80
2015,07,07,04,41,14.80
2015,07,07,04,42,14.80
2015,07,07,04,43,14.80
2015,07,07,04,44,14.80
2015,07,07,04,45,14.80
2015,07,07,04,46,14.70
2015,07,07,04,47,14.70
2015,07,07,04,48,14.70
2015,07,07,04,49,14.70
2015,07,07,04,50,14.70
2015,07,07,04,51,14.70
2015,07,07,04,52,14.70
2015,07,07,04,53,14.60
2015,07,07,04,54,14.60
2015,07,07,04,55,14.60
2015,07,07,04,56,14.60
2015,07,07,04,57,14.60
2015,07,07,04,58,14.60
2015,07,07,04,59,14.50
2015,07,07,05,00,14.50
2015,07,07,05,01,14.50
2015,07,07,05,02,14.50
2015,07,07,05,03,14.50
2015,07,07,05,04,14.50
2015,07,07,05,05,14.50
2015,07,07,05,06,14.50
2015,07,07,05,07,14.50
2015,07,07,05,08,14.50
2015,07,07,05,09,14.50
2015,07,07,05,10,14.50
2015,07,07,05,11,14.50
2015,07,07,05,12,14.50
2015,07,07,05,13,14.40
2015,07,07,05,14,14.40
2015,07,07,05,15,14.40
2015,07,07,05,16,14.40
2015,07,07,05,17,14.40
2015,07,07,05,18,14.40
2015,07,07,05,19,14.40
2015,07,07,05,20,14.40
2015,07,07,05,21,14.40
2015,07,07,05,22,14.40
2015,07,07,05,23,14.30
2015,07,07,05,24,14.30
2015,07,07,05,25,14.30
2015,07,07,05,26,14.30
2015,07,07,05,27,14.30
2015,07,07,05,28,14.30
2015,07,07,05,29,14.30
2015,07,07,05,30,14.30
2015,07,07,05,31,14.30
2015,07,07,05,32,14.30
2015,07,07,05,33,14.30
2015,07,07,05,34,14.30
2015,07,07,05,35,14.30
2015,07,07,05,36,14.30
2015,07,07,05,37,14.30
2015,07,07,05,38,14.30
2015,07,07,05,39,14.30
2015,07,07,05,40,14.40
2015,07,07,05,41,14.40
2015,07,07,05,42,14.40
2015,07,07,05,43,14.40
2015,07,07,05,44,14.40
2015,07,07,05,45,14.40
2015,07,07,05,46,14.40
2015,07,07,05,47,14.30
2015,07,07,05,48,14.30
2015,07,07,05,49,14.30
2015,07,07,05,50,14.30
2015,07,07,05,51,14.30
2015,07,07,05,52,14.30
2015,07,07,05,53,14.30
2015,07,07,05,54,14.30
2015,07,07,05,55,14.30
2015,07,07,05,56,14.30
2015,07,07,05,57,14.30
2015,07,07,05,58,14.30
2015,07,07,05,59,14.30
2015,07,07,06,00,14.30
2015,07,07,06,01,14.30
2015,07,07,06,02,14.30
2015,07,07,06,03,14.30
2015,07,07,06,04,14.30
2015,07,07,06,05,14.30
2015,07,07,06,06,14.30
2015,07,07,06,07,14.30
2015,07,07,06,08,14.40
2015,07,07,06,09,14.40
2015,07,07,06,10,14.40
2015,07,07,06,11,14.40
2015,07,07,06,12,14.40
2015,07,07,06,13,14.40
2015,07,07,06,14,14.40
2015,07,07,06,15,14.50
2015,07,07,06,16,14.50
2015,07,07,06,17,14.50
2015,07,07,06,18,14.50
2015,07,07,06,19,14.50
2015,07,07,06,20,14.50
2015,07,07,06,21,14.50
2015,07,07,06,22,14.60
2015,07,07,06,23,14.60
2015,07,07,06,24,14.60
2015,07,07,06,25,14.60
2015,07,07,06,26,14.60
2015,07,07,06,27,14.60
2015,07,07,06,28,14.60
2015,07,07,06,29,14.70
2015,07,07,06,30,14.70
2015,07,07,06,31,14.70
2015,07,07,06,32,14.70
2015,07,07,06,33,14.70
2015,07,07,06,34,14.70
2015,07,07,06,35,14.70
2015,07,07,06,36,14.70
2015,07,07,06,37,14.70
2015,07,07,06,38,14.80
2015,07,07,06,39,14.80
2015,07,07,06,40,14.80
2015,07,07,06,41,14.80
2015,07,07,06,42,14.80
2015,07,07,06,43,14.80
2015,07,07,06,44,14.80
2015,07,07,06,45,14.80
2015,07,07,06,46,14.90
2015,07,07,06,47,14.90
2015,07,07,06,48,14.90
2015,07,07,06,49,14.90
2015,07,07,06,50,14.90
2015,07,07,06,51,15.00
2015,07,07,06,52,15.00
2015,07,07,06,53,15.00
2015,07,07,06,54,15.00
2015,07,07,06,55,15.10
2015,07,07,06,56,15.10
2015,07,07,06,57,15.10
2015,07,07,06,58,15.10
2015,07,07,06,59,15.10
2015,07,07,07,00,15.10
2015,07,07,07,01,15.20
2015,07,07,07,02,15.20
2015,07,07,07,03,15.20
2015,07,07,07,04,15.30
2015,07,07,07,05,15.30
2015,07,07,07,06,15.40
2015,07,07,07,07,15.40
2015,07,07,07,08,15.50
2015,07,07,07,09,15.50
2015,07,07,07,10,15.60
2015,07,07,07,11,15.60
2015,07,07,07,12,15.60
2015,07,07,07,13,15.70
2015,07,07,07,14,15.70
2015,07,07,07,15,15.80
2015,07,07,07,16,15.80
2015,07,07,07,17,15.90
2015,07,07,07,18,15.90
2015,07,07,07,19,15.90
2015,07,07,07,20,16.00
2015,07,07,07,21,16.00
2015,07,07,07,22,16.10
2015,07,07,07,23,16.10
2015,07,07,07,24,16.20
2015,07,07,07,25,16.20
2015,07,07,07,26,16.30
2015,07,07,07,27,16.30
2015,07,07,07,28,16.40
2015,07,07,07,29,16.40
2015,07,07,07,30,16.50
2015,07,07,07,31,16.60
2015,07,07,07,32,16.60
2015,07,07,07,33,16.70
2015,07,07,07,34,16.70
2015,07,07,07,35,16.80
2015,07,07,07,36,16.80
2015,07,07,07,37,16.90
2015,07,07,07,38,17.00
2015,07,07,07,39,17.00
2015,07,07,07,40,17.10
2015,07,07,07,41,17.20
2015,07,07,07,42,17.20
2015,07,07,07,43,17.20
2015,07,07,07,44,17.30
2015,07,07,07,45,17.30
2015,07,07,07,46,17.40
2015,07,07,07,47,17.50
2015,07,07,07,48,17.50
2015,07,07,07,49,17.60
2015,07,07,07,50,17.60
2015,07,07,07,51,17.70
2015,07,07,07,52,17.70
2015,07,07,07,53,17.80
2015,07,07,07,54,17.80
2015,07,07,07,55,17.80
2015,07,07,07,56,17.80
2015,07,07,07,57,17.90
2015,07,07,07,58,17.90
2015,07,07,07,59,18.00
2015,07,07,08,00,18.10
2015,07,07,08,01,18.10
2015,07,07,08,02,18.20
2015,07,07,08,03,18.20
2015,07,07,08,04,18.30
2015,07,07,08,05,18.30
2015,07,07,08,06,18.30
2015,07,07,08,07,18.40
2015,07,07,08,08,18.40
2015,07,07,08,09,18.50
2015,07,07,08,10,18.60
2015,07,07,08,11,18.60
2015,07,07,08,12,18.60
2015,07,07,08,13,18.70
2015,07,07,08,14,18.70
2015,07,07,08,15,18.70
2015,07,07,08,16,18.80
2015,07,07,08,17,18.80
2015,07,07,08,18,18.90
2015,07,07,08,19,18.90
2015,07,07,08,20,19.00
2015,07,07,08,21,19.10
2015,07,07,08,22,19.10
2015,07,07,08,23,19.10
2015,07,07,08,24,19.20
2015,07,07,08,25,19.30
2015,07,07,08,26,19.30
2015,07,07,08,27,19.30
2015,07,07,08,28,19.40
2015,07,07,08,29,19.40
2015,07,07,08,30,19.40
2015,07,07,08,31,19.50
2015,07,07,08,32,19.50
2015,07,07,08,33,19.50
2015,07,07,08,34,19.50
2015,07,07,08,35,19.40
2015,07,07,08,36,19.40
2015,07,07,08,37,19.40
2015,07,07,08,38,19.40
2015,07,07,08,39,19.50
2015,07,07,08,40,19.50
2015,07,07,08,41,19.50
2015,07,07,08,42,19.50
2015,07,07,08,43,19.40
2015,07,07,08,44,19.40
2015,07,07,08,45,19.40
2015,07,07,08,46,19.40
2015,07,07,08,47,19.40
2015,07,07,08,48,19.40
2015,07,07,08,49,19.40
2015,07,07,08,50,19.50
2015,07,07,08,51,19.50
2015,07,07,08,52,19.50
2015,07,07,08,53,19.60
2015,07,07,08,54,19.60
2015,07,07,08,55,19.60
2015,07,07,08,56,19.60
2015,07,07,08,57,19.70
2015,07,07,08,58,19.70
2015,07,07,08,59,19.70
2015,07,07,09,00,19.80
2015,07,07,09,01,19.80
2015,07,07,09,02,19.80
2015,07,07,09,03,19.80
2015,07,07,09,04,19.80
2015,07,07,09,05,19.90
2015,07,07,09,06,19.90
2015,07,07,09,07,19.90
2015,07,07,09,08,19.90
2015,07,07,09,09,20.00
2015,07,07,09,10,20.00
2015,07,07,09,11,20.10
2015,07,07,09,12,20.10
2015,07,07,09,13,20.10
2015,07,07,09,14,20.20
2015,07,07,09,15,20.20
2015,07,07,09,16,20.20
2015,07,07,09,17,20.30
2015,07,07,09,18,20.30
2015,07,07,09,19,20.30
2015,07,07,09,20,20.40
2015,07,07,09,21,20.30
2015,07,07,09,22,20.40
2015,07,07,09,23,20.40
2015,07,07,09,24,20.40
2015,07,07,09,25,20.40
2015,07,07,09,26,20.40
2015,07,07,09,27,20.30
2015,07,07,09,28,20.20
2015,07,07,09,29,20.20
2015,07,07,09,30,20.10
2015,07,07,09,31,20.00
2015,07,07,09,32,20.00
2015,07,07,09,33,19.90
2015,07,07,09,34,19.90
2015,07,07,09,35,19.90
2015,07,07,09,36,19.90
2015,07,07,09,37,19.90
2015,07,07,09,38,19.80
2015,07,07,09,39,19.80
2015,07,07,09,40,19.80
2015,07,07,09,41,19.80
2015,07,07,09,42,19.80
2015,07,07,09,43,19.80
2015,07,07,09,44,19.90
2015,07,07,09,45,19.90
2015,07,07,09,46,19.90
2015,07,07,09,47,19.80
2015,07,07,09,48,19.80
2015,07,07,09,49,19.80
2015,07,07,09,50,19.80
2015,07,07,09,51,19.80
2015,07,07,09,52,19.80
2015,07,07,09,53,19.90
2015,07,07,09,54,20.00
2015,07,07,09,55,20.00
2015,07,07,09,56,20.10
2015,07,07,09,57,20.10
2015,07,07,09,58,20.20
2015,07,07,09,59,20.20
2015,07,07,10,00,20.20
2015,07,07,10,01,20.20
2015,07,07,10,02,20.20
2015,07,07,10,03,20.30
2015,07,07,10,04,20.30
2015,07,07,10,05,20.30
2015,07,07,10,06,20.40
2015,07,07,10,07,20.50
2015,07,07,10,08,20.60
2015,07,07,10,09,20.60
2015,07,07,10,10,20.70
2015,07,07,10,11,20.70
2015,07,07,10,12,20.80
2015,07,07,10,13,20.80
2015,07,07,10,14,20.80
2015,07,07,10,15,20.90
2015,07,07,10,16,20.90
2015,07,07,10,17,20.90
2015,07,07,10,18,21.00
2015,07,07,10,19,21.00
2015,07,07,10,20,21.10
2015,07,07,10,21,21.10
2015,07,07,10,22,21.20
2015,07,07,10,23,21.20
2015,07,07,10,24,21.30
2015,07,07,10,25,21.30
2015,07,07,10,26,21.30
2015,07,07,10,27,21.40
2015,07,07,10,28,21.40
2015,07,07,10,29,21.50
2015,07,07,10,30,21.60
2015,07,07,10,31,21.60
2015,07,07,10,32,21.70
2015,07,07,10,33,21.80
2015,07,07,10,34,21.70
2015,07,07,10,35,21.70
2015,07,07,10,36,21.70
2015,07,07,10,37,21.70
2015,07,07,10,38,21.70
2015,07,07,10,39,21.70
2015,07,07,10,40,21.60
2015,07,07,10,41,21.60
2015,07,07,10,42,21.60
2015,07,07,10,43,21.60
2015,07,07,10,44,21.50
2015,07,07,10,45,21.50
2015,07,07,10,46,21.50
2015,07,07,10,47,21.50
2015,07,07,10,48,21.50
2015,07,07,10,49,21.50
2015,07,07,10,50,21.60
2015,07,07,10,51,21.70
2015,07,07,10,52,21.70
2015,07,07,10,53,21.70
2015,07,07,10,54,21.70
2015,07,07,10,55,21.70
2015,07,07,10,56,21.70
2015,07,07,10,57,21.70
2015,07,07,10,58,21.70
2015,07,07,10,59,21.70
2015,07,07,11,00,21.70
2015,07,07,11,01,21.60
2015,07,07,11,02,21.60
2015,07,07,11,03,21.60
2015,07,07,11,04,21.60
2015,07,07,11,05,21.60
2015,07,07,11,06,21.60
2015,07,07,11,07,21.60
2015,07,07,11,08,21.60
2015,07,07,11,09,21.60
2015,07,07,11,10,21.50
2015,07,07,11,11,21.50
2015,07,07,11,12,21.40
2015,07,07,11,13,21.30
2015,07,07,11,14,21.30
2015,07,07,11,15,21.40
2015,07,07,11,16,21.40
2015,07,07,11,17,21.50
2015,07,07,11,18,21.50
2015,07,07,11,19,21.50
2015,07,07,11,20,21.60
2015,07,07,11,21,21.60
2015,07,07,11,22,21.50
2015,07,07,11,23,21.40
2015,07,07,11,24,21.30
2015,07,07,11,25,21.30
2015,07,07,11,26,21.30
2015,07,07,11,27,21.30
2015,07,07,11,28,21.40
2015,07,07,11,29,21.40
2015,07,07,11,30,21.40
2015,07,07,11,31,21.50
2015,07,07,11,32,21.50
2015,07,07,11,33,21.50
2015,07,07,11,34,21.50
2015,07,07,11,35,21.60
2015,07,07,11,36,21.60
2015,07,07,11,37,21.60
2015,07,07,11,38,21.60
2015,07,07,11,39,21.60
2015,07,07,11,40,21.60
2015,07,07,11,41,21.50
2015,07,07,11,42,21.50
2015,07,07,11,43,21.50
2015,07,07,11,44,21.60
2015,07,07,11,45,21.60
2015,07,07,11,46,21.70
2015,07,07,11,47,21.70
2015,07,07,11,48,21.70
2015,07,07,11,49,21.80
2015,07,07,11,50,21.80
2015,07,07,11,51,21.80
2015,07,07,11,52,21.80
2015,07,07,11,53,21.80
2015,07,07,11,54,21.80
2015,07,07,11,55,21.90
2015,07,07,11,56,22.00
2015,07,07,11,57,22.00
2015,07,07,11,58,22.10
2015,07,07,11,59,22.20
2015,07,07,12,00,22.20
2015,07,07,12,01,22.20
2015,07,07,12,02,22.20
2015,07,07,12,03,22.10
2015,07,07,12,04,22.10
2015,07,07,12,05,22.00
2015,07,07,12,06,22.00
2015,07,07,12,07,21.90
2015,07,07,12,08,21.90
2015,07,07,12,09,21.90
2015,07,07,12,10,21.80
2015,07,07,12,11,21.80
2015,07,07,12,12,21.80
2015,07,07,12,13,21.90
2015,07,07,12,14,22.00
2015,07,07,12,15,22.00
2015,07,07,12,16,22.10
2015,07,07,12,17,22.20
2015,07,07,12,18,22.30
2015,07,07,12,19,22.30
2015,07,07,12,20,22.30
2015,07,07,12,21,22.30
2015,07,07,12,22,22.30
2015,07,07,12,23,22.30
2015,07,07,12,24,22.30
2015,07,07,12,25,22.40
2015,07,07,12,26,22.40
2015,07,07,12,27,22.50
2015,07,07,12,28,22.60
2015,07,07,12,29,22.70
2015,07,07,12,30,22.70
2015,07,07,12,31,22.80
2015,07,07,12,32,22.80
2015,07,07,12,33,22.80
2015,07,07,12,34,22.70
2015,07,07,12,35,22.70
2015,07,07,12,36,22.60
2015,07,07,12,37,22.60
2015,07,07,12,38,22.60
2015,07,07,12,39,22.50
2015,07,07,12,40,22.50
2015,07,07,12,41,22.40
2015,07,07,12,42,22.40
2015,07,07,12,43,22.40
2015,07,07,12,44,22.40
2015,07,07,12,45,22.30
2015,07,07,12,46,22.20
2015,07,07,12,47,22.20
2015,07,07,12,48,22.30
2015,07,07,12,49,22.30
2015,07,07,12,50,22.30
2015,07,07,12,51,22.30
2015,07,07,12,52,22.20
2015,07,07,12,53,22.10
2015,07,07,12,54,22.10
2015,07,07,12,55,22.10
2015,07,07,12,56,22.10
2015,07,07,12,57,22.00
2015,07,07,12,58,22.00
2015,07,07,12,59,22.00
2015,07,07,13,00,22.00
2015,07,07,13,01,22.00
2015,07,07,13,02,22.10
2015,07,07,13,03,22.20
2015,07,07,13,04,22.20
2015,07,07,13,05,22.30
2015,07,07,13,06,22.30
2015,07,07,13,07,22.30
2015,07,07,13,08,22.30
2015,07,07,13,09,22.30
2015,07,07,13,10,22.20
2015,07,07,13,11,22.10
2015,07,07,13,12,22.20
2015,07,07,13,13,22.20
2015,07,07,13,14,22.30
2015,07,07,13,15,22.30
2015,07,07,13,16,22.30
2015,07,07,13,17,22.30
2015,07,07,13,18,22.20
2015,07,07,13,19,22.20
2015,07,07,13,20,22.20
2015,07,07,13,21,22.20
2015,07,07,13,22,22.30
2015,07,07,13,23,22.30
2015,07,07,13,24,22.40
2015,07,07,13,25,22.50
2015,07,07,13,26,22.50
2015,07,07,13,27,22.60
2015,07,07,13,28,22.70
2015,07,07,13,29,22.90
2015,07,07,13,30,23.00
2015,07,07,13,31,23.10
2015,07,07,13,32,23.20
2015,07,07,13,33,23.20
2015,07,07,13,34,23.20
2015,07,07,13,35,23.20
2015,07,07,13,36,23.20
2015,07,07,13,37,23.10
2015,07,07,13,38,23.10
2015,07,07,13,39,23.00
2015,07,07,13,40,22.90
2015,07,07,13,41,22.90
2015,07,07,13,42,23.00
2015,07,07,13,43,23.00
2015,07,07,13,44,23.00
2015,07,07,13,45,23.10
2015,07,07,13,46,23.20
2015,07,07,13,47,23.20
2015,07,07,13,48,23.30
2015,07,07,13,49,23.40
2015,07,07,13,50,23.50
2015,07,07,13,51,23.60
2015,07,07,13,52,23.70
2015,07,07,13,53,23.70
2015,07,07,13,54,23.70
2015,07,07,13,55,23.70
2015,07,07,13,56,23.60
2015,07,07,13,57,23.60
2015,07,07,13,58,23.50
2015,07,07,13,59,23.40
2015,07,07,14,00,23.40
2015,07,07,14,01,23.40
2015,07,07,14,02,23.40
2015,07,07,14,03,23.50
2015,07,07,14,04,23.50
2015,07,07,14,05,23.50
2015,07,07,14,06,23.60
2015,07,07,14,07,23.70
2015,07,07,14,08,23.80
2015,07,07,14,09,23.80
2015,07,07,14,10,23.70
2015,07,07,14,11,23.70
2015,07,07,14,12,23.60
2015,07,07,14,13,23.50
2015,07,07,14,14,23.50
2015,07,07,14,15,23.50
2015,07,07,14,16,23.50
2015,07,07,14,17,23.50
2015,07,07,14,18,23.60
2015,07,07,14,19,23.70
2015,07,07,14,20,23.80
2015,07,07,14,21,23.80
2015,07,07,14,22,23.80
2015,07,07,14,23,23.90
2015,07,07,14,24,23.90
2015,07,07,14,25,24.00
2015,07,07,14,26,24.00
2015,07,07,14,27,24.10
2015,07,07,14,28,24.20
2015,07,07,14,29,24.40
2015,07,07,14,30,24.40
2015,07,07,14,31,24.40
2015,07,07,14,32,24.50
2015,07,07,14,33,24.50
2015,07,07,14,34,24.60
2015,07,07,14,35,24.50
2015,07,07,14,36,24.50
2015,07,07,14,37,24.50
2015,07,07,14,38,24.50
2015,07,07,14,39,24.50
2015,07,07,14,40,24.50
2015,07,07,14,41,24.50
2015,07,07,14,42,24.60
2015,07,07,14,43,24.60
2015,07,07,14,44,24.60
2015,07,07,14,45,24.60
2015,07,07,14,46,24.50
2015,07,07,14,47,24.40
2015,07,07,14,48,24.40
2015,07,07,14,49,24.40
2015,07,07,14,50,24.40
2015,07,07,14,51,24.30
2015,07,07,14,52,24.30
2015,07,07,14,53,24.30
2015,07,07,14,54,24.30
2015,07,07,14,55,24.30
2015,07,07,14,56,24.30
2015,07,07,14,57,24.30
2015,07,07,14,58,24.30
2015,07,07,14,59,24.30
2015,07,07,15,00,24.30
2015,07,07,15,01,24.30
2015,07,07,15,02,24.20
2015,07,07,15,03,24.20
2015,07,07,15,04,24.10
2015,07,07,15,05,24.10
2015,07,07,15,06,24.10
2015,07,07,15,07,24.20
2015,07,07,15,08,24.20
2015,07,07,15,09,24.20
2015,07,07,15,10,24.30
2015,07,07,15,11,24.30
2015,07,07,15,12,24.40
2015,07,07,15,13,24.50
2015,07,07,15,14,24.50
2015,07,07,15,15,24.60
2015,07,07,15,16,24.60
2015,07,07,15,17,24.70
2015,07,07,15,18,24.70
2015,07,07,15,19,24.70
2015,07,07,15,20,24.70
2015,07,07,15,21,24.80
2015,07,07,15,22,24.80
2015,07,07,15,23,24.80
2015,07,07,15,24,24.90
2015,07,07,15,25,25.00
2015,07,07,15,26,25.00
2015,07,07,15,27,25.10
2015,07,07,15,28,25.10
2015,07,07,15,29,25.10
2015,07,07,15,30,25.10
2015,07,07,15,31,25.10
2015,07,07,15,32,25.10
2015,07,07,15,33,25.10
2015,07,07,15,34,25.10
2015,07,07,15,35,25.20
2015,07,07,15,36,25.20
2015,07,07,15,37,25.20
2015,07,07,15,38,25.20
2015,07,07,15,39,25.20
2015,07,07,15,40,25.20
2015,07,07,15,41,25.20
2015,07,07,15,42,25.30
2015,07,07,15,43,25.50
2015,07,07,15,44,25.60
2015,07,07,15,45,25.60
2015,07,07,15,46,25.70
2015,07,07,15,47,25.70
2015,07,07,15,48,25.70
2015,07,07,15,49,25.70
2015,07,07,15,50,25.80
2015,07,07,15,51,25.80
2015,07,07,15,52,25.80
2015,07,07,15,53,25.80
2015,07,07,15,54,25.90
2015,07,07,15,55,25.90
2015,07,07,15,56,25.80
2015,07,07,15,57,25.70
2015,07,07,15,58,25.60
2015,07,07,15,59,25.60
2015,07,07,16,00,25.50
2015,07,07,16,01,25.60
2015,07,07,16,02,25.70
2015,07,07,16,03,25.70
2015,07,07,16,04,25.60
2015,07,07,16,05,25.60
2015,07,07,16,06,25.60
2015,07,07,16,07,25.60
2015,07,07,16,08,25.60
2015,07,07,16,09,25.50
2015,07,07,16,10,25.40
2015,07,07,16,11,25.40
2015,07,07,16,12,25.40
2015,07,07,16,13,25.50
2015,07,07,16,14,25.50
2015,07,07,16,15,25.50
2015,07,07,16,16,25.60
2015,07,07,16,17,25.60
2015,07,07,16,18,25.60
2015,07,07,16,19,25.60
2015,07,07,16,20,25.60
2015,07,07,16,21,25.70
2015,07,07,16,22,25.70
2015,07,07,16,23,25.70
2015,07,07,16,24,25.70
2015,07,07,16,25,25.70
2015,07,07,16,26,25.70
2015,07,07,16,27,25.80
2015,07,07,16,28,25.90
2015,07,07,16,29,25.90
2015,07,07,16,30,25.90
2015,07,07,16,31,25.80
2015,07,07,16,32,25.80
2015,07,07,16,33,25.90
2015,07,07,16,34,25.90
2015,07,07,16,35,25.90
2015,07,07,16,36,25.90
2015,07,07,16,37,25.80
2015,07,07,16,38,25.70
2015,07,07,16,39,25.70
2015,07,07,16,40,25.70
2015,07,07,16,41,25.60
2015,07,07,16,42,25.60
2015,07,07,16,43,25.60
2015,07,07,16,44,25.60
2015,07,07,16,45,25.60
2015,07,07,16,46,25.60
2015,07,07,16,47,25.60
2015,07,07,16,48,25.60
2015,07,07,16,49,25.50
2015,07,07,16,50,25.50
2015,07,07,16,51,25.50
2015,07,07,16,52,25.40
2015,07,07,16,53,25.40
2015,07,07,16,54,25.40
2015,07,07,16,55,25.40
2015,07,07,16,56,25.40
2015,07,07,16,57,25.40
2015,07,07,16,58,25.50
2015,07,07,16,59,25.50
2015,07,07,17,00,25.50
2015,07,07,17,01,25.40
2015,07,07,17,02,25.30
2015,07,07,17,03,25.30
2015,07,07,17,04,25.30
2015,07,07,17,05,25.30
2015,07,07,17,06,25.30
2015,07,07,17,07,25.30
2015,07,07,17,08,25.30
2015,07,07,17,09,25.30
2015,07,07,17,10,25.40
2015,07,07,17,11,25.40
2015,07,07,17,12,25.40
2015,07,07,17,13,25.40
2015,07,07,17,14,25.40
2015,07,07,17,15,25.50
2015,07,07,17,16,25.50
2015,07,07,17,17,25.60
2015,07,07,17,18,25.60
2015,07,07,17,19,25.70